DLH3TW LOWI-EDDK

Flight info

Callsign DLH3TW
Flight time 1h 3m
Altitude 36000
Route KPT L608 KOVAN T844 UMDAS/N0358F240 T844 ASKIK T840 GULKO GULKO1F
Aircraft A320/M-SDE3FGHIRWY/LB1

Departure

Time 2026-04-22 20:41
Airport Innsbruck Airport (LOWI)

Arrival

Time 2026-04-22 21:44
Airport Cologne Bonn Airport (EDDK)
Time Latitude Longitude Altitude Speed Heading
2026-04-22 20:17 47.25791 11.34752 1896 ft 0 kts 171°
2026-04-22 20:33 47.25792 11.34751 1907 ft 2 kts 171°
2026-04-22 20:33 47.25818 11.34748 1909 ft 4 kts 187°
2026-04-22 20:34 47.25841 11.34760 1895 ft 4 kts 229°
2026-04-22 20:34 47.25848 11.34776 1894 ft 0 kts 261°
2026-04-22 20:37 47.25848 11.34774 1894 ft 2 kts 262°
2026-04-22 20:37 47.25848 11.34720 1900 ft 3 kts 266°
2026-04-22 20:37 47.25835 11.34642 1896 ft 10 kts 257°
2026-04-22 20:38 47.25823 11.34552 1907 ft 8 kts 259°
2026-04-22 20:38 47.25812 11.34448 1907 ft 13 kts 261°
2026-04-22 20:38 47.25800 11.34327 1907 ft 11 kts 262°
2026-04-22 20:38 47.25789 11.34221 1907 ft 10 kts 261°
2026-04-22 20:39 47.25778 11.34119 1895 ft 11 kts 261°
2026-04-22 20:39 47.25772 11.33997 1907 ft 13 kts 276°
2026-04-22 20:39 47.25807 11.33881 1903 ft 14 kts 304°
2026-04-22 20:39 47.25828 11.33836 1899 ft 9 kts 304°
2026-04-22 20:40 47.25880 11.33729 1901 ft 16 kts 306°
2026-04-22 20:40 47.25946 11.33727 1893 ft 12 kts 60°
2026-04-22 20:40 47.25965 11.33871 1909 ft 21 kts 81°
2026-04-22 20:40 47.26030 11.34473 1908 ft 97 kts 81°
2026-04-22 20:41 47.26165 11.35737 2067 ft 139 kts 81°
2026-04-22 20:41 47.26331 11.37128 2814 ft 138 kts 78°
2026-04-22 20:41 47.26515 11.38523 3447 ft 145 kts 79°
2026-04-22 20:41 47.26722 11.40083 3834 ft 166 kts 78°
2026-04-22 20:42 47.26957 11.41845 4227 ft 181 kts 78°
2026-04-22 20:42 47.27197 11.43657 4791 ft 185 kts 78°
2026-04-22 20:42 47.27506 11.45499 5512 ft 186 kts 74°
2026-04-22 20:42 47.27859 11.47344 6199 ft 188 kts 74°
2026-04-22 20:43 47.28216 11.49198 6846 ft 188 kts 74°
2026-04-22 20:43 47.28577 11.51075 7443 ft 192 kts 73°
2026-04-22 20:43 47.28940 11.52976 8192 ft 193 kts 73°
2026-04-22 20:43 47.29300 11.54882 8978 ft 194 kts 73°
2026-04-22 20:44 47.29661 11.56800 9775 ft 196 kts 73°
2026-04-22 20:44 47.30033 11.58769 10479 ft 202 kts 72°
2026-04-22 20:44 47.30406 11.60744 11225 ft 204 kts 72°
2026-04-22 20:44 47.30778 11.62742 12072 ft 200 kts 72°
2026-04-22 20:45 47.31194 11.64689 12863 ft 199 kts 62°
2026-04-22 20:45 47.31940 11.66450 13379 ft 212 kts 53°
2026-04-22 20:45 47.32835 11.68321 13742 ft 235 kts 53°
2026-04-22 20:45 47.33827 11.70392 14116 ft 259 kts 53°
2026-04-22 20:46 47.36088 11.75143 14714 ft 306 kts 53°
2026-04-22 20:46 47.37321 11.77750 15209 ft 319 kts 53°
2026-04-22 20:46 47.38570 11.80487 15935 ft 325 kts 57°
2026-04-22 20:47 47.39656 11.83435 16712 ft 329 kts 59°
2026-04-22 20:47 47.41043 11.86102 17427 ft 330 kts 42°
2026-04-22 20:47 47.42947 11.88007 18209 ft 334 kts 25°
2026-04-22 20:47 47.45199 11.88877 18922 ft 340 kts
2026-04-22 20:48 47.47568 11.88427 19562 ft 351 kts 344°
2026-04-22 20:48 47.49697 11.86568 20213 ft 365 kts 321°
2026-04-22 20:48 47.51185 11.83524 20830 ft 381 kts 297°
2026-04-22 20:48 47.51736 11.79639 21445 ft 396 kts 272°
2026-04-22 20:49 47.51236 11.75593 22034 ft 405 kts 255°
2026-04-22 20:49 47.50334 11.71623 22691 ft 409 kts 251°
2026-04-22 20:49 47.49340 11.67673 23322 ft 412 kts 253°
2026-04-22 20:49 47.48661 11.63551 23935 ft 413 kts 264°
2026-04-22 20:50 47.48574 11.59317 24442 ft 413 kts 278°
2026-04-22 20:50 47.49129 11.55167 24960 ft 411 kts 291°
2026-04-22 20:50 47.50026 11.51146 25493 ft 413 kts 292°
2026-04-22 20:50 47.50936 11.47102 25999 ft 416 kts 291°
2026-04-22 20:51 47.51844 11.43026 26450 ft 419 kts 291°
2026-04-22 20:51 47.52734 11.38968 26939 ft 421 kts 291°
2026-04-22 20:51 47.53631 11.34830 27400 ft 424 kts 291°
2026-04-22 20:51 47.54523 11.30665 27889 ft 424 kts 291°
2026-04-22 20:52 47.55410 11.26496 28386 ft 426 kts 291°
2026-04-22 20:52 47.56301 11.22308 28830 ft 428 kts 291°
2026-04-22 20:52 47.57201 11.18089 29269 ft 431 kts 291°
2026-04-22 20:52 47.58105 11.13853 29678 ft 433 kts 291°
2026-04-22 20:53 47.59016 11.09579 30087 ft 436 kts 291°
2026-04-22 20:53 47.59919 11.05337 30459 ft 439 kts 291°
2026-04-22 20:53 47.60836 11.01012 30802 ft 441 kts 291°
2026-04-22 20:53 47.61754 10.96663 31141 ft 443 kts 290°
2026-04-22 20:54 47.62673 10.92296 31456 ft 445 kts 290°
2026-04-22 20:54 47.63596 10.87913 31811 ft 446 kts 290°
2026-04-22 20:54 47.64519 10.83521 32163 ft 446 kts 290°
2026-04-22 20:54 47.65438 10.79133 32621 ft 445 kts 290°
2026-04-22 20:55 47.66352 10.74766 33081 ft 443 kts 290°
2026-04-22 20:55 47.67264 10.70406 33529 ft 442 kts 290°
2026-04-22 20:55 47.68159 10.66111 33974 ft 441 kts 290°
2026-04-22 20:55 47.69058 10.61775 34398 ft 439 kts 290°
2026-04-22 20:56 47.69952 10.57445 34755 ft 438 kts 290°
2026-04-22 20:56 47.70845 10.53119 35080 ft 438 kts 290°
2026-04-22 20:56 47.71735 10.48801 35420 ft 437 kts 290°
2026-04-22 20:56 47.72627 10.44489 35728 ft 437 kts 290°
2026-04-22 20:57 47.73577 10.40213 36035 ft 434 kts 295°
2026-04-22 20:57 47.74936 10.36232 36247 ft 431 kts 305°
2026-04-22 20:57 47.78825 10.29807 36289 ft 417 kts 324°
2026-04-22 20:58 47.83338 10.24378 36298 ft 417 kts 323°
2026-04-22 20:58 47.87819 10.18895 36282 ft 417 kts 323°
2026-04-22 20:59 47.92290 10.13393 36300 ft 417 kts 323°
2026-04-22 20:59 47.96732 10.07930 36298 ft 416 kts 323°
2026-04-22 21:00 48.01200 10.02438 36290 ft 416 kts 323°
2026-04-22 21:00 48.05675 9.96933 36282 ft 417 kts 323°
2026-04-22 21:01 48.10158 9.91401 36284 ft 418 kts 323°
2026-04-22 21:01 48.14609 9.85895 36285 ft 418 kts 323°
2026-04-22 21:02 48.19087 9.80327 36273 ft 418 kts 322°
2026-04-22 21:02 48.23560 9.74755 36282 ft 418 kts 322°
2026-04-22 21:03 48.28038 9.69173 36284 ft 419 kts 323°
2026-04-22 21:03 48.32500 9.63603 36286 ft 420 kts 323°
2026-04-22 21:04 48.36978 9.57955 36288 ft 420 kts 322°
2026-04-22 21:04 48.41427 9.52245 36290 ft 420 kts 322°
2026-04-22 21:05 48.45867 9.46512 36286 ft 420 kts 322°
2026-04-22 21:05 48.49559 9.41760 36291 ft 420 kts 322°
2026-04-22 21:06 48.54161 9.35859 36293 ft 420 kts 322°
2026-04-22 21:06 48.58607 9.30125 36295 ft 420 kts 322°
2026-04-22 21:07 48.63313 9.24999 36293 ft 415 kts 336°
2026-04-22 21:07 48.68588 9.21472 36293 ft 414 kts 339°
2026-04-22 21:08 48.73840 9.18013 36272 ft 415 kts 338°
2026-04-22 21:08 48.79133 9.14506 36280 ft 415 kts 338°
2026-04-22 21:09 48.84418 9.10985 36285 ft 415 kts 338°
2026-04-22 21:09 48.89761 9.07658 36294 ft 414 kts 343°
2026-04-22 21:10 48.95194 9.04931 36296 ft 414 kts 344°
2026-04-22 21:10 49.00675 9.02186 36298 ft 415 kts 344°
2026-04-22 21:11 49.06159 8.99424 36299 ft 415 kts 344°
2026-04-22 21:11 49.11650 8.96645 36302 ft 416 kts 343°
2026-04-22 21:12 49.17144 8.93855 36300 ft 416 kts 344°
2026-04-22 21:12 49.22608 8.91084 36303 ft 417 kts 344°
2026-04-22 21:13 49.28114 8.88285 36289 ft 417 kts 344°
2026-04-22 21:13 49.33620 8.85475 36306 ft 417 kts 343°
2026-04-22 21:14 49.39122 8.82648 36314 ft 417 kts 343°
2026-04-22 21:14 49.44662 8.80036 36306 ft 416 kts 347°
2026-04-22 21:15 49.50218 8.77700 36309 ft 417 kts 347°
2026-04-22 21:15 49.55816 8.75334 36308 ft 417 kts 347°
2026-04-22 21:16 49.61407 8.72891 36307 ft 418 kts 346°
2026-04-22 21:16 49.66995 8.70401 36310 ft 418 kts 346°
2026-04-22 21:17 49.69794 8.69155 36074 ft 417 kts 347°
2026-04-22 21:17 49.72534 8.67935 35973 ft 404 kts 347°
2026-04-22 21:17 49.75156 8.66771 35886 ft 391 kts 347°
2026-04-22 21:17 49.77729 8.65633 35800 ft 378 kts 347°
2026-04-22 21:18 49.82694 8.63438 35638 ft 367 kts 347°
2026-04-22 21:18 49.87590 8.61263 35477 ft 365 kts 347°
2026-04-22 21:19 49.92492 8.59077 35275 ft 368 kts 347°
2026-04-22 21:19 49.94948 8.57980 34857 ft 367 kts 347°
2026-04-22 21:19 49.97371 8.56900 34407 ft 367 kts 348°
2026-04-22 21:20 49.99827 8.55805 33911 ft 367 kts 348°
2026-04-22 21:20 50.02269 8.54714 33464 ft 364 kts 348°
2026-04-22 21:20 50.04696 8.53627 33002 ft 362 kts 348°
2026-04-22 21:20 50.07102 8.52489 32550 ft 361 kts 346°
2026-04-22 21:21 50.09482 8.51247 32101 ft 360 kts 345°
2026-04-22 21:21 50.11045 8.50392 31795 ft 360 kts 345°
2026-04-22 21:21 50.13397 8.49079 31370 ft 358 kts 345°
2026-04-22 21:21 50.15744 8.47767 30938 ft 358 kts 345°
2026-04-22 21:22 50.18843 8.46059 30366 ft 356 kts 345°
2026-04-22 21:22 50.21182 8.44785 29904 ft 355 kts 346°
2026-04-22 21:22 50.23502 8.43527 29491 ft 351 kts 346°
2026-04-22 21:22 50.25797 8.42287 29090 ft 348 kts 346°
2026-04-22 21:23 50.27310 8.41471 28820 ft 346 kts 346°
2026-04-22 21:23 50.29525 8.40007 28431 ft 347 kts 336°
2026-04-22 21:23 50.31586 8.38042 28038 ft 346 kts 332°
2026-04-22 21:23 50.33612 8.36015 27635 ft 344 kts 332°
2026-04-22 21:24 50.35622 8.34008 27220 ft 342 kts 332°
2026-04-22 21:24 50.38265 8.31368 26695 ft 338 kts 332°
2026-04-22 21:24 50.39605 8.30031 26413 ft 337 kts 332°
2026-04-22 21:24 50.41579 8.28061 26012 ft 336 kts 332°
2026-04-22 21:25 50.43522 8.26117 25594 ft 335 kts 331°
2026-04-22 21:25 50.45482 8.24152 25176 ft 334 kts 331°
2026-04-22 21:25 50.47441 8.22189 24732 ft 334 kts 331°
2026-04-22 21:25 50.49400 8.20231 24299 ft 334 kts 331°
2026-04-22 21:26 50.51357 8.18268 23840 ft 334 kts 331°
2026-04-22 21:26 50.53314 8.16301 23364 ft 333 kts 331°
2026-04-22 21:26 50.55259 8.14341 22924 ft 331 kts 331°
2026-04-22 21:26 50.57189 8.12395 22501 ft 329 kts 331°
2026-04-22 21:27 50.59088 8.10481 22077 ft 328 kts 331°
2026-04-22 21:27 50.61004 8.08551 21657 ft 326 kts 331°
2026-04-22 21:27 50.62911 8.06625 21238 ft 325 kts 331°
2026-04-22 21:27 50.64811 8.04699 20821 ft 324 kts 330°
2026-04-22 21:28 50.66705 8.02772 20403 ft 324 kts 330°
2026-04-22 21:28 50.68593 8.00847 19991 ft 323 kts 330°
2026-04-22 21:28 50.70482 7.98918 19579 ft 323 kts 330°
2026-04-22 21:28 50.72368 7.96997 19167 ft 323 kts 330°
2026-04-22 21:29 50.74214 7.95062 18764 ft 324 kts 325°
2026-04-22 21:29 50.75855 7.92607 18315 ft 327 kts 313°
2026-04-22 21:29 50.77163 7.89658 17891 ft 328 kts 305°
2026-04-22 21:29 50.78392 7.86627 17487 ft 327 kts 306°
2026-04-22 21:30 50.79616 7.83611 17076 ft 326 kts 306°
2026-04-22 21:30 50.80836 7.80608 16681 ft 324 kts 306°
2026-04-22 21:30 50.82049 7.77611 16283 ft 323 kts 306°
2026-04-22 21:30 50.83259 7.74617 15895 ft 322 kts 306°
2026-04-22 21:31 50.84449 7.71676 15518 ft 321 kts 306°
2026-04-22 21:31 50.85652 7.68705 15123 ft 320 kts 306°
2026-04-22 21:31 50.86850 7.65739 14746 ft 319 kts 306°
2026-04-22 21:31 50.88048 7.62777 14354 ft 319 kts 306°
2026-04-22 21:32 50.89239 7.59826 13961 ft 318 kts 306°
2026-04-22 21:32 50.90429 7.56876 13562 ft 316 kts 306°
2026-04-22 21:32 50.91607 7.53944 13171 ft 315 kts 306°
2026-04-22 21:32 50.92775 7.51030 12781 ft 312 kts 306°
2026-04-22 21:33 50.93921 7.48168 12394 ft 311 kts 306°
2026-04-22 21:33 50.95077 7.45283 12000 ft 309 kts 306°
2026-04-22 21:33 50.96227 7.42414 11601 ft 308 kts 306°
2026-04-22 21:33 50.97374 7.39550 11201 ft 306 kts 305°
2026-04-22 21:34 50.98511 7.36709 10790 ft 304 kts 305°
2026-04-22 21:34 50.99620 7.33928 10389 ft 292 kts 305°
2026-04-22 21:34 51.00682 7.31263 9990 ft 280 kts 305°
2026-04-22 21:34 51.01698 7.28707 9593 ft 268 kts 305°
2026-04-22 21:35 51.02666 7.26274 9231 ft 262 kts 305°
2026-04-22 21:35 51.03645 7.23825 8766 ft 265 kts 305°
2026-04-22 21:35 51.04644 7.21324 8156 ft 268 kts 304°
2026-04-22 21:35 51.05642 7.18813 7724 ft 269 kts 304°
2026-04-22 21:36 51.06638 7.16290 7303 ft 270 kts 303°
2026-04-22 21:36 51.07431 7.13586 6886 ft 271 kts 288°
2026-04-22 21:36 51.07764 7.10629 6439 ft 273 kts 273°
2026-04-22 21:36 51.07694 7.07609 6005 ft 273 kts 267°
2026-04-22 21:37 51.07546 7.03667 5717 ft 261 kts 268°
2026-04-22 21:37 51.07477 7.01797 5672 ft 251 kts 268°
2026-04-22 21:37 51.07376 6.99093 5579 ft 239 kts 268°
2026-04-22 21:37 51.07278 6.96521 5472 ft 228 kts 265°
2026-04-22 21:38 51.06743 6.94229 5408 ft 224 kts 226°
2026-04-22 21:38 51.05416 6.93084 5365 ft 219 kts 182°
2026-04-22 21:38 51.04028 6.93642 5309 ft 199 kts 136°
2026-04-22 21:38 51.03203 6.95300 5174 ft 188 kts 124°
2026-04-22 21:39 51.02288 6.96597 4991 ft 174 kts 163°
2026-04-22 21:39 51.01115 6.96693 4717 ft 168 kts 183°
2026-04-22 21:39 50.99914 6.96631 4097 ft 179 kts 171°
2026-04-22 21:39 50.98735 6.97340 3182 ft 195 kts 138°
2026-04-22 21:40 50.97806 6.98777 2932 ft 180 kts 136°
2026-04-22 21:40 50.96890 7.00068 2656 ft 172 kts 136°
2026-04-22 21:40 50.96053 7.01266 2414 ft 152 kts 135°
2026-04-22 21:40 50.95319 7.02328 2196 ft 135 kts 135°
2026-04-22 21:41 50.94661 7.03283 2020 ft 122 kts 134°
2026-04-22 21:41 50.94062 7.04154 1852 ft 112 kts 134°
2026-04-22 21:41 50.93503 7.04971 1697 ft 117 kts 134°
2026-04-22 21:41 50.92884 7.05885 1527 ft 124 kts 134°
2026-04-22 21:42 50.92247 7.06831 1199 ft 127 kts 134°
2026-04-22 21:42 50.91581 7.07811 943 ft 122 kts 136°
2026-04-22 21:42 50.90918 7.08751 1000 ft 132 kts 136°
2026-04-22 21:42 50.90242 7.09723 893 ft 129 kts 135°
2026-04-22 21:43 50.89560 7.10698 724 ft 131 kts 135°
2026-04-22 21:43 50.88892 7.11671 526 ft 129 kts 135°
2026-04-22 21:43 50.88241 7.12617 355 ft 129 kts 135°
2026-04-22 21:43 50.87596 7.13557 239 ft 113 kts 137°
2026-04-22 21:44 50.87190 7.14147 247 ft 64 kts 137°
2026-04-22 21:44 50.86962 7.14479 257 ft 22 kts 138°
2026-04-22 21:44 50.86879 7.14509 260 ft 12 kts 233°
2026-04-22 21:44 50.86878 7.14387 260 ft 11 kts 277°
2026-04-22 21:45 50.86894 7.14252 256 ft 14 kts 277°
2026-04-22 21:45 50.86919 7.14107 255 ft 13 kts 297°
2026-04-22 21:45 50.86987 7.13987 249 ft 17 kts 319°
2026-04-22 21:45 50.87092 7.13834 242 ft 23 kts 318°
2026-04-22 21:46 50.87222 7.13648 237 ft 28 kts 317°
2026-04-22 21:46 50.87373 7.13428 232 ft 31 kts 317°
2026-04-22 21:46 50.87537 7.13193 233 ft 32 kts 318°
2026-04-22 21:46 50.87703 7.12950 233 ft 31 kts 317°
2026-04-22 21:47 50.87789 7.12804 232 ft 13 kts 285°
2026-04-22 21:47 50.87796 7.12666 234 ft 12 kts 298°
2026-04-22 21:47 50.87865 7.12611 232 ft 11 kts 355°
2026-04-22 21:47 50.87933 7.12591 234 ft 10 kts 321°
2026-04-22 21:48 50.87984 7.12519 232 ft 14 kts 317°
2026-04-22 21:48 50.88066 7.12391 232 ft 14 kts 310°
2026-04-22 21:48 50.88099 7.12296 232 ft 10 kts 279°
2026-04-22 21:48 50.88127 7.12208 232 ft 9 kts 305°
2026-04-22 21:49 50.88141 7.12141 232 ft 5 kts 240°
2026-04-22 21:49 50.88114 7.12104 232 ft 4 kts 216°
2026-04-22 21:49 50.88106 7.12095 232 ft 0 kts 216°